Time,TemperatureF,DewpointF,PressureIn,WindDirection,WindDirectionDegrees,WindSpeedMPH,WindSpeedGustMPH,Humidity,HourlyPrecipIn,Conditions,Clouds,dailyrainin,SoftwareType,DateUTC
2013-04-23 00:02:00,58.0,46.0,-100.00,SSW,195,1.0,11.0,64,-99.99,,,-99.99,,2013-04-23 05:02:00,
2013-04-23 00:12:00,56.0,47.0,-100.00,South,180,5.0,12.0,70,-99.99,,,-99.99,,2013-04-23 05:12:00,
2013-04-23 00:22:00,54.0,49.0,-100.00,SSW,195,0.0,4.0,83,-99.99,,,-99.99,,2013-04-23 05:22:00,
2013-04-23 00:32:00,54.0,49.0,-100.00,SSW,195,0.0,4.0,83,-99.99,,,-99.99,,2013-04-23 05:32:00,
2013-04-23 00:42:00,54.0,49.0,-100.00,South,170,0.0,4.0,85,-99.99,,,-99.99,,2013-04-23 05:42:00,
2013-04-23 00:52:00,53.0,50.0,-100.00,SSW,210,0.0,0.0,88,-99.99,,,-99.99,,2013-04-23 05:52:00,
2013-04-23 01:02:00,53.0,50.0,-100.00,SSW,210,0.0,0.0,88,-99.99,,,-99.99,,2013-04-23 06:02:00,
2013-04-23 01:12:00,53.0,50.0,-100.00,South,180,0.0,3.0,91,-99.99,,,-99.99,,2013-04-23 06:12:00,
2013-04-23 01:21:00,53.0,50.0,-100.00,SSE,150,0.0,0.0,91,-99.99,,,-99.99,,2013-04-23 06:21:00,
2013-04-23 01:33:00,53.0,50.0,-100.00,SSE,150,0.0,0.0,91,-99.99,,,-99.99,,2013-04-23 06:33:00,
2013-04-23 01:42:00,52.0,50.0,-100.00,NE,40,0.0,1.0,91,-99.99,,,-99.99,,2013-04-23 06:42:00,
2013-04-23 01:52:00,52.0,50.0,-100.00,NE,40,0.0,0.0,93,-99.99,,,-99.99,,2013-04-23 06:52:00,
2013-04-23 02:00:00,52.0,50.0,-100.00,SE,125,0.0,2.0,92,-99.99,,,-99.99,,2013-04-23 07:00:00,
2013-04-23 02:02:00,52.0,50.0,-100.00,NE,40,0.0,0.0,93,-99.99,,,-99.99,,2013-04-23 07:02:00,
2013-04-23 02:11:00,52.0,50.0,-100.00,ESE,120,0.0,4.0,93,-99.99,,,-99.99,,2013-04-23 07:11:00,
2013-04-23 02:21:00,52.0,50.0,-100.00,ESE,120,1.0,3.0,94,-99.99,,,-99.99,,2013-04-23 07:21:00,
2013-04-23 02:32:00,52.0,50.0,-100.00,ESE,120,1.0,3.0,94,-99.99,,,-99.99,,2013-04-23 07:32:00,
2013-04-23 02:42:00,52.0,50.0,-100.00,SE,125,0.0,2.0,92,-99.99,,,-99.99,,2013-04-23 07:42:00,
2013-04-23 02:52:00,52.0,50.0,-100.00,SE,125,0.0,2.0,92,-99.99,,,-99.99,,2013-04-23 07:52:00,
2013-04-23 03:11:00,51.0,50.0,-100.00,WNW,300,0.0,0.0,95,-99.99,,,-99.99,,2013-04-23 08:11:00,
2013-04-23 03:21:00,52.0,50.0,-100.00,SE,140,0.0,2.0,94,-99.99,,,-99.99,,2013-04-23 08:21:00,
2013-04-23 03:32:00,52.0,50.0,-100.00,SE,140,0.0,2.0,94,-99.99,,,-99.99,,2013-04-23 08:32:00,
2013-04-23 03:42:00,51.0,50.0,-100.00,SE,130,0.0,0.0,95,-99.99,,,-99.99,,2013-04-23 08:42:00,
2013-04-23 03:52:00,52.0,50.0,-100.00,SE,140,0.0,0.0,93,-99.99,,,-99.99,,2013-04-23 08:52:00,
2013-04-23 04:01:00,52.0,50.0,-100.00,SE,140,0.0,0.0,93,-99.99,,,-99.99,,2013-04-23 09:01:00,
2013-04-23 04:11:00,51.0,49.0,-100.00,West,280,0.0,0.0,94,-99.99,,,-99.99,,2013-04-23 09:11:00,
2013-04-23 04:21:00,50.0,49.0,-100.00,SSW,195,0.0,0.0,96,-99.99,,,-99.99,,2013-04-23 09:21:00,
2013-04-23 04:33:00,50.0,49.0,-100.00,SSW,195,0.0,0.0,96,-99.99,,,-99.99,,2013-04-23 09:33:00,
2013-04-23 04:43:00,50.0,49.0,-100.00,SW,225,0.0,1.0,96,-99.99,,,-99.99,,2013-04-23 09:43:00,
2013-04-23 04:53:00,51.0,50.0,-100.00,WSW,255,1.0,3.0,97,-99.99,,,-99.99,,2013-04-23 09:53:00,
2013-04-23 05:02:00,51.0,50.0,-100.00,WSW,255,1.0,3.0,97,-99.99,,,-99.99,,2013-04-23 10:02:00,
2013-04-23 05:13:00,50.0,49.0,-100.00,West,260,0.0,0.0,97,-99.99,,,-99.99,,2013-04-23 10:13:00,
2013-04-23 05:22:00,50.0,49.0,-100.00,West,265,0.0,3.0,98,-99.99,,,-99.99,,2013-04-23 10:22:00,
2013-04-23 05:33:00,50.0,49.0,-100.00,West,265,0.0,3.0,98,-99.99,,,-99.99,,2013-04-23 10:33:00,
2013-04-23 05:42:00,50.0,49.0,-100.00,WSW,255,3.0,9.0,96,-99.99,,,-99.99,,2013-04-23 10:42:00,
2013-04-23 05:52:00,51.0,48.0,-100.00,West,265,5.0,10.0,91,-99.99,,,-99.99,,2013-04-23 10:52:00,
2013-04-23 06:03:00,51.0,48.0,-100.00,West,265,5.0,10.0,91,-99.99,,,-99.99,,2013-04-23 11:03:00,
2013-04-23 06:12:00,51.0,48.0,-100.00,WNW,285,8.0,15.0,89,-99.99,,,-99.99,,2013-04-23 11:12:00,
2013-04-23 06:21:00,48.0,46.0,-100.00,West,270,11.0,21.0,91,-99.99,,,-99.99,,2013-04-23 11:21:00,
2013-04-23 06:32:00,48.0,46.0,-100.00,West,270,11.0,21.0,91,-99.99,,,-99.99,,2013-04-23 11:32:00,
2013-04-23 06:42:00,46.0,44.0,-100.00,West,275,11.0,17.0,90,-99.99,,,-99.99,,2013-04-23 11:42:00,
2013-04-23 06:53:00,45.0,43.0,-100.00,West,275,9.0,14.0,90,-99.99,,,-99.99,,2013-04-23 11:53:00,
2013-04-23 07:02:00,45.0,43.0,-100.00,West,275,9.0,14.0,90,-99.99,,,-99.99,,2013-04-23 12:02:00,
2013-04-23 07:12:00,45.0,42.0,-100.00,WNW,285,6.0,14.0,89,-99.99,,,-99.99,,2013-04-23 12:12:00,
2013-04-23 07:22:00,44.0,41.0,-100.00,WNW,285,9.0,16.0,89,-99.99,,,-99.99,,2013-04-23 12:22:00,
2013-04-23 07:32:00,44.0,41.0,-100.00,WNW,285,9.0,16.0,89,-99.99,,,-99.99,,2013-04-23 12:32:00,
2013-04-23 07:42:00,44.0,41.0,-100.00,WNW,285,9.0,16.0,89,-99.99,,,-99.99,,2013-04-23 12:42:00,
2013-04-23 07:52:00,42.0,38.0,-100.00,West,280,11.0,19.0,85,-99.99,,,-99.99,,2013-04-23 12:52:00,
2013-04-23 08:01:00,42.0,38.0,-100.00,West,280,11.0,19.0,85,-99.99,,,-99.99,,2013-04-23 13:01:00,
2013-04-23 08:11:00,42.0,38.0,-100.00,West,275,11.0,19.0,85,-99.99,,,-99.99,,2013-04-23 13:11:00,
2013-04-23 08:21:00,41.0,37.0,-100.00,WNW,290,8.0,16.0,85,-99.99,,,-99.99,,2013-04-23 13:21:00,
2013-04-23 08:32:00,41.0,37.0,-100.00,WNW,290,8.0,16.0,85,-99.99,,,-99.99,,2013-04-23 13:32:00,
2013-04-23 08:42:00,41.0,37.0,-100.00,West,275,9.0,17.0,86,-99.99,,,-99.99,,2013-04-23 13:42:00,
2013-04-23 08:52:00,41.0,37.0,-100.00,WNW,285,6.0,15.0,85,-99.99,,,-99.99,,2013-04-23 13:52:00,
2013-04-23 09:02:00,41.0,37.0,-100.00,WNW,285,6.0,15.0,85,-99.99,,,-99.99,,2013-04-23 14:02:00,
2013-04-23 09:11:00,41.0,38.0,-100.00,WNW,290,6.0,17.0,89,-99.99,,,-99.99,,2013-04-23 14:11:00,
2013-04-23 09:22:00,40.0,37.0,-100.00,WNW,290,11.0,16.0,89,-99.99,,,-99.99,,2013-04-23 14:22:00,
2013-04-23 09:32:00,40.0,37.0,-100.00,WNW,290,11.0,16.0,89,-99.99,,,-99.99,,2013-04-23 14:32:00,
2013-04-23 09:42:00,40.0,37.0,-100.00,WNW,295,9.0,14.0,87,-99.99,,,-99.99,,2013-04-23 14:42:00,
2013-04-23 09:52:00,41.0,37.0,-100.00,WNW,290,7.0,11.0,88,-99.99,,,-99.99,,2013-04-23 14:52:00,
2013-04-23 10:01:00,41.0,37.0,-100.00,WNW,290,7.0,11.0,88,-99.99,,,-99.99,,2013-04-23 15:01:00,
2013-04-23 10:12:00,40.0,37.0,-100.00,NW,305,8.0,16.0,87,-99.99,,,-99.99,,2013-04-23 15:12:00,
2013-04-23 10:21:00,40.0,38.0,-100.00,West,280,6.0,15.0,90,-99.99,,,-99.99,,2013-04-23 15:21:00,
2013-04-23 10:32:00,40.0,38.0,-100.00,West,280,6.0,15.0,90,-99.99,,,-99.99,,2013-04-23 15:32:00,
2013-04-23 10:42:00,40.0,37.0,-100.00,WNW,295,8.0,15.0,90,-99.99,,,-99.99,,2013-04-23 15:42:00,
2013-04-23 10:53:00,39.0,37.0,-100.00,WNW,290,11.0,17.0,92,-99.99,,,-99.99,,2013-04-23 15:53:00,
2013-04-23 11:03:00,39.0,37.0,-100.00,WNW,290,11.0,17.0,92,-99.99,,,-99.99,,2013-04-23 16:03:00,
2013-04-23 11:12:00,39.0,37.0,-100.00,WNW,300,9.0,20.0,92,-99.99,,,-99.99,,2013-04-23 16:12:00,
2013-04-23 11:23:00,39.0,37.0,-100.00,NW,310,11.0,20.0,92,-99.99,,,-99.99,,2013-04-23 16:23:00,
2013-04-23 11:34:00,39.0,37.0,-100.00,NW,310,11.0,20.0,92,-99.99,,,-99.99,,2013-04-23 16:34:00,
2013-04-23 11:43:00,39.0,37.0,-100.00,WNW,300,10.0,16.0,93,-99.99,,,-99.99,,2013-04-23 16:43:00,
2013-04-23 11:53:00,39.0,37.0,-100.00,WNW,295,13.0,18.0,92,-99.99,,,-99.99,,2013-04-23 16:53:00,
2013-04-23 12:02:00,39.0,37.0,-100.00,WNW,295,13.0,18.0,92,-99.99,,,-99.99,,2013-04-23 17:02:00,
2013-04-23 12:12:00,39.0,37.0,-100.00,NW,315,10.0,16.0,93,-99.99,,,-99.99,,2013-04-23 17:12:00,
2013-04-23 12:22:00,38.0,36.0,-100.00,NW,305,11.0,17.0,91,-99.99,,,-99.99,,2013-04-23 17:22:00,
2013-04-23 12:32:00,38.0,36.0,-100.00,NW,305,11.0,17.0,91,-99.99,,,-99.99,,2013-04-23 17:32:00,
2013-04-23 12:42:00,39.0,36.0,-100.00,NW,305,11.0,19.0,91,-99.99,,,-99.99,,2013-04-23 17:42:00,
2013-04-23 12:53:00,39.0,37.0,-100.00,WNW,295,6.0,11.0,94,-99.99,,,-99.99,,2013-04-23 17:53:00,
2013-04-23 13:02:00,39.0,37.0,-100.00,WNW,295,6.0,11.0,94,-99.99,,,-99.99,,2013-04-23 18:02:00,
2013-04-23 13:12:00,39.0,37.0,-100.00,WNW,295,6.0,13.0,93,-99.99,,,-99.99,,2013-04-23 18:12:00,
2013-04-23 13:22:00,39.0,38.0,-100.00,WNW,300,7.0,13.0,94,-99.99,,,-99.99,,2013-04-23 18:22:00,
2013-04-23 13:32:00,39.0,38.0,-100.00,WNW,300,7.0,13.0,94,-99.99,,,-99.99,,2013-04-23 18:32:00,
2013-04-23 13:42:00,39.0,37.0,-100.00,WNW,300,6.0,14.0,93,-99.99,,,-99.99,,2013-04-23 18:42:00,
2013-04-23 13:52:00,39.0,37.0,-100.00,WNW,300,10.0,15.0,92,-99.99,,,-99.99,,2013-04-23 18:52:00,
2013-04-23 14:02:00,39.0,37.0,-100.00,WNW,300,10.0,15.0,92,-99.99,,,-99.99,,2013-04-23 19:02:00,
2013-04-23 14:11:00,40.0,37.0,-100.00,NW,320,8.0,15.0,90,-99.99,,,-99.99,,2013-04-23 19:11:00,
2013-04-23 14:22:00,39.0,37.0,-100.00,NW,305,9.0,16.0,91,-99.99,,,-99.99,,2013-04-23 19:22:00,
2013-04-23 14:32:00,39.0,37.0,-100.00,NW,305,9.0,16.0,91,-99.99,,,-99.99,,2013-04-23 19:32:00,
2013-04-23 14:42:00,39.0,36.0,-100.00,NW,305,10.0,17.0,89,-99.99,,,-99.99,,2013-04-23 19:42:00,
2013-04-23 14:52:00,39.0,36.0,-100.00,NW,305,11.0,16.0,90,-99.99,,,-99.99,,2013-04-23 19:52:00,
2013-04-23 15:02:00,39.0,36.0,-100.00,NW,305,11.0,16.0,90,-99.99,,,-99.99,,2013-04-23 20:02:00,
2013-04-23 15:11:00,39.0,36.0,-100.00,NW,315,14.0,21.0,88,-99.99,,,-99.99,,2013-04-23 20:11:00,
2013-04-23 15:22:00,39.0,36.0,-100.00,NW,325,12.0,19.0,90,-99.99,,,-99.99,,2013-04-23 20:22:00,
2013-04-23 15:32:00,39.0,36.0,-100.00,NW,325,12.0,19.0,90,-99.99,,,-99.99,,2013-04-23 20:32:00,
2013-04-23 15:42:00,39.0,36.0,-100.00,NW,320,10.0,18.0,89,-99.99,,,-99.99,,2013-04-23 20:42:00,
2013-04-23 15:52:00,39.0,37.0,-100.00,WNW,300,8.0,18.0,90,-99.99,,,-99.99,,2013-04-23 20:52:00,
2013-04-23 16:02:00,39.0,37.0,-100.00,WNW,300,8.0,18.0,90,-99.99,,,-99.99,,2013-04-23 21:02:00,
2013-04-23 16:12:00,39.0,37.0,-100.00,WNW,295,8.0,17.0,90,-99.99,,,-99.99,,2013-04-23 21:12:00,
2013-04-23 16:21:00,39.0,36.0,-100.00,NW,325,14.0,21.0,89,-99.99,,,-99.99,,2013-04-23 21:21:00,
2013-04-23 16:33:00,39.0,36.0,-100.00,NW,325,14.0,21.0,89,-99.99,,,-99.99,,2013-04-23 21:33:00,
2013-04-23 16:43:00,40.0,36.0,-100.00,NW,320,9.0,19.0,87,-99.99,,,-99.99,,2013-04-23 21:43:00,
2013-04-23 16:52:00,40.0,37.0,-100.00,NW,310,9.0,12.0,87,-99.99,,,-99.99,,2013-04-23 21:52:00,
2013-04-23 17:03:00,40.0,37.0,-100.00,NW,310,9.0,12.0,87,-99.99,,,-99.99,,2013-04-23 22:03:00,
2013-04-23 17:12:00,40.0,36.0,-100.00,NW,310,7.0,17.0,85,-99.99,,,-99.99,,2013-04-23 22:12:00,
2013-04-23 17:22:00,40.0,34.0,-100.00,NW,320,15.0,21.0,80,-99.99,,,-99.99,,2013-04-23 22:22:00,
2013-04-23 17:33:00,40.0,34.0,-100.00,NW,320,15.0,21.0,80,-99.99,,,-99.99,,2013-04-23 22:33:00,
2013-04-23 17:42:00,40.0,35.0,-100.00,NW,320,10.0,18.0,82,-99.99,,,-99.99,,2013-04-23 22:42:00,
2013-04-23 17:52:00,40.0,36.0,-100.00,NW,315,8.0,14.0,85,-99.99,,,-99.99,,2013-04-23 22:52:00,
2013-04-23 18:03:00,40.0,36.0,-100.00,NW,315,8.0,14.0,85,-99.99,,,-99.99,,2013-04-23 23:03:00,
2013-04-23 18:12:00,40.0,36.0,-100.00,NW,315,8.0,14.0,85,-99.99,,,-99.99,,2013-04-23 23:12:00,
2013-04-23 18:22:00,40.0,36.0,-100.00,NW,320,9.0,15.0,86,-99.99,,,-99.99,,2013-04-23 23:22:00,
2013-04-23 18:32:00,40.0,36.0,-100.00,NW,320,9.0,15.0,86,-99.99,,,-99.99,,2013-04-23 23:32:00,
2013-04-23 18:42:00,40.0,36.0,-100.00,NW,320,6.0,14.0,86,-99.99,,,-99.99,,2013-04-23 23:42:00,
2013-04-23 18:52:00,40.0,36.0,-100.00,NW,310,8.0,15.0,85,-99.99,,,-99.99,,2013-04-23 23:52:00,
2013-04-23 19:01:00,40.0,36.0,-100.00,NW,310,8.0,15.0,85,-99.99,,,-99.99,,2013-04-24 00:01:00,
2013-04-23 19:11:00,40.0,35.0,-100.00,NW,320,8.0,13.0,84,-99.99,,,-99.99,,2013-04-24 00:11:00,
2013-04-23 19:22:00,40.0,35.0,-100.00,NW,320,7.0,15.0,82,-99.99,,,-99.99,,2013-04-24 00:22:00,
2013-04-23 19:32:00,40.0,35.0,-100.00,NW,320,7.0,15.0,82,-99.99,,,-99.99,,2013-04-24 00:32:00,
2013-04-23 19:41:00,40.0,35.0,-100.00,NW,320,7.0,15.0,82,-99.99,,,-99.99,,2013-04-24 00:41:00,
2013-04-23 19:52:00,40.0,35.0,-100.00,NW,325,8.0,11.0,83,-99.99,,,-99.99,,2013-04-24 00:52:00,
2013-04-23 20:02:00,40.0,35.0,-100.00,NW,325,8.0,11.0,83,-99.99,,,-99.99,,2013-04-24 01:02:00,
2013-04-23 20:11:00,40.0,35.0,-100.00,NW,310,7.0,11.0,83,-99.99,,,-99.99,,2013-04-24 01:11:00,
2013-04-23 20:21:00,40.0,35.0,-100.00,NW,315,6.0,10.0,82,-99.99,,,-99.99,,2013-04-24 01:21:00,
2013-04-23 20:32:00,40.0,35.0,-100.00,NW,315,6.0,10.0,82,-99.99,,,-99.99,,2013-04-24 01:32:00,
2013-04-23 20:42:00,40.0,36.0,-100.00,WNW,300,4.0,9.0,84,-99.99,,,-99.99,,2013-04-24 01:42:00,
2013-04-23 20:52:00,40.0,35.0,-100.00,NW,305,6.0,10.0,82,-99.99,,,-99.99,,2013-04-24 01:52:00,
2013-04-23 21:02:00,40.0,35.0,-100.00,NW,305,6.0,10.0,82,-99.99,,,-99.99,,2013-04-24 02:02:00,
2013-04-23 21:17:00,40.0,36.0,-100.00,NW,305,2.0,7.0,84,-99.99,,,-99.99,,2013-04-24 02:17:00,
2013-04-23 21:29:00,40.0,35.0,-100.00,WNW,295,5.0,11.0,83,-99.99,,,-99.99,,2013-04-24 02:29:00,
2013-04-23 21:39:00,40.0,35.0,-100.00,WNW,295,5.0,11.0,83,-99.99,,,-99.99,,2013-04-24 02:39:00,
2013-04-23 21:47:00,40.0,36.0,-100.00,WNW,300,5.0,8.0,83,-99.99,,,-99.99,,2013-04-24 02:47:00,
2013-04-23 22:00:00,40.0,35.0,-100.00,WNW,300,6.0,11.0,82,-99.99,,,-99.99,,2013-04-24 03:00:00,
2013-04-23 22:09:00,40.0,35.0,-100.00,WNW,300,6.0,11.0,82,-99.99,,,-99.99,,2013-04-24 03:09:00,
2013-04-23 22:29:00,41.0,34.0,-100.00,WNW,300,7.0,10.0,78,-99.99,,,-99.99,,2013-04-24 03:29:00,
2013-04-23 22:40:00,41.0,34.0,-100.00,WNW,300,7.0,10.0,78,-99.99,,,-99.99,,2013-04-24 03:40:00,
2013-04-23 23:01:00,40.0,34.0,-100.00,NW,305,8.0,14.0,77,-99.99,,,-99.99,,2013-04-24 04:01:00,
2013-04-23 23:03:00,40.0,34.0,-100.00,NW,305,8.0,14.0,77,-99.99,,,-99.99,,2013-04-24 04:03:00,
2013-04-23 23:12:00,40.0,34.0,-100.00,NW,310,9.0,12.0,77,-99.99,,,-99.99,,2013-04-24 04:12:00,
2013-04-23 23:23:00,40.0,33.0,-100.00,NW,305,10.0,13.0,75,-99.99,,,-99.99,,2013-04-24 04:23:00,
2013-04-23 23:33:00,40.0,33.0,-100.00,NW,305,10.0,13.0,75,-99.99,,,-99.99,,2013-04-24 04:33:00,
2013-04-23 23:43:00,40.0,33.0,-100.00,NW,310,9.0,14.0,75,-99.99,,,-99.99,,2013-04-24 04:43:00,
2013-04-23 23:53:00,40.0,33.0,-100.00,NW,305,6.0,14.0,75,-99.99,,,-99.99,,2013-04-24 04:53:00,